Wind_Speed
15 14 13 13 13 12 11 10 9 8 8 7 6 6 6 6 6 6 5 3 2 3 4 5 6 7 9 10 11 12 12 13 14 15 17 19 20 22 23 23 23 22 22 21 21 21 22 21 18 16 15 15 14 13 12 11 12 12 13 13 13 12 12 11 10 9 8 7 7
13 12 11 11 11 10 10 9 9 9 9 8 7 6 6 5 5 5 5 4 3 3 3 4 5 6 7 9 10 10 9 9 8 9 10 11 13 15 16 17 16 15 13 11 8 7 8 8 9 9 9 9 9 9 9 9 10 11 11 11 11 11 11 11 9 7 6 6 5
11 9 9 10 10 10 10 9 8 8 7 7 6 6 6 5 5 5 4 4 4 4 3 3 3 4 5 6 7 7 6 6 6 6 6 6 6 7 8 8 9 9 10 10 10 11 13 14 16 17 17 17 17 16 15 14 14 14 14 13 13 13 13 13 11 9 7 6 5
12 11 10 10 10 10 10 9 8 8 7 6 6 6 6 6 5 5 5 4 4 3 3 3 2 3 3 4 5 7 8 10 11 12 13 13 14 14 13 10 10 13 16 18 18 18 19 19 20 20 20 20 19 18 17 15 14 13 13 12 11 11 11 10 9 8 7 6 5
13 12 11 10 10 11 10 9 9 8 7 6 7 7 7 7 7 7 6 6 6 7 7 7 8 8 9 10 11 13 14 15 15 15 16 16 16 14 13 15 17 21 24 23 21 20 20 20 20 19 18 17 17 16 15 13 12 12 11 11 10 10 10 9 8 7 6 4 3
13 12 11 11 10 10 10 10 9 9 7 7 8 9 10 10 10 10 10 11 12 13 13 14 15 15 16 16 16 16 16 17 16 16 16 17 18 19 20 21 22 23 23 22 21 20 19 19 19 18 17 16 16 16 15 14 13 12 12 11 11 10 9 7 6 4 3 1 0
15 14 13 12 12 12 11 11 11 11 10 10 11 12 13 13 14 15 15 16 17 17 18 18 17 17 17 16 16 16 16 16 17 17 18 18 17 18 18 19 20 21 21 20 19 18 18 17 17 17 15 14 14 13 13 12 12 12 11 11 10 9 7 6 4 3 1 0 1
17 16 15 14 14 14 14 14 14 14 14 15 15 16 17 17 17 18 18 19 18 18 17 17 16 16 15 15 15 15 15 15 16 16 16 16 15 15 15 16 17 17 17 17 16 15 15 14 14 14 13 12 11 10 10 9 9 9 9 9 8 7 7 6 4 3 2 1 1
18 18 17 17 17 17 17 17 17 18 19 19 19 18 18 18 18 18 18 18 17 17 16 16 15 15 14 14 14 14 14 14 14 14 14 14 14 14 14 14 15 15 15 14 14 13 13 13 13 12 11 10 9 8 8 7 7 7 7 6 6 6 6 6 5 4 4 4 4
20 20 20 19 19 19 20 20 20 21 21 21 20 19 19 18 18 17 17 17 16 16 15 14 14 13 13 13 13 13 13 13 13 12 12 12 12 13 13 13 13 13 13 13 13 12 12 12 12 12 11 10 9 9 8 8 8 7 6 6 6 5 5 5 5 5 5 5 5
22 22 21 21 21 21 22 22 22 22 22 21 20 19 18 18 17 17 16 16 15 15 14 13 12 12 11 11 11 11 10 10 10 10 10 10 10 11 11 11 11 12 12 12 11 11 11 12 12 12 11 11 10 9 9 8 7 6 5 4 4 4 3 3 3 3 4 4 4
23 23 22 22 22 23 23 23 23 22 22 21 19 18 17 16 16 15 15 14 14 13 12 11 10 10 9 9 9 8 8 8 8 8 8 8 9 9 9 10 10 10 10 10 10 10 10 10 11 10 10 10 9 8 7 5 4 3 2 2 2 1 2 2 2 3 3 4 4
24 23 23 23 23 23 23 23 23 22 21 20 18 17 16 15 14 14 13 13 13 12 11 9 9 8 8 8 7 7 7 7 7 7 7 7 7 8 9 9 10 10 10 9 9 9 9 9 9 8 8 7 6 5 4 3 2 1 1 1 1 1 2 2 3 4 4 4 4
24 23 23 22 22 23 23 22 22 21 20 19 17 16 15 15 14 13 13 12 11 10 9 8 8 8 8 7 7 7 7 7 7 7 7 7 6 7 8 8 9 9 9 9 9 9 9 9 9 9 9 8 7 7 6 5 5 4 3 3 3 2 2 2 3 4 4 4 5
23 22 22 22 22 22 22 21 20 19 18 18 17 16 15 14 13 12 12 11 10 9 8 8 8 8 8 8 8 8 9 9 9 8 8 8 8 8 9 9 10 10 10 9 9 9 9 9 9 9 10 9 9 8 8 7 6 5 4 3 2 2 2 3 3 4 4 5 5
23 22 22 22 22 22 21 20 19 18 17 16 15 14 14 13 12 11 10 10 9 8 8 9 9 9 9 10 10 10 10 10 10 10 10 10 10 11 11 12 11 11 11 10 10 10 9 9 9 9 8 8 8 7 7 6 5 4 3 2 2 2 3 4 4 4 5 5 6
23 22 21 21 21 21 21 19 18 17 16 15 14 13 12 11 10 10 9 9 9 9 9 10 10 10 10 11 11 11 11 11 11 11 11 11 11 11 12 12 11 11 10 10 10 9 8 8 7 7 6 6 6 5 5 4 3 2 1 1 2 3 4 4 5 5 6 6 7
23 22 21 21 21 20 19 18 17 16 15 14 13 12 11 10 10 10 10 10 10 10 10 11 11 11 11 11 11 12 12 11 11 11 11 11 11 11 11 11 11 10 10 10 9 9 9 8 7 7 6 6 5 5 4 3 2 1 0 1 2 3 4 5 5 6 6 7 7
22 21 20 20 20 19 18 17 17 16 15 14 13 12 11 11 11 11 11 11 11 11 11 11 12 12 12 12 12 12 12 12 12 12 11 11 11 11 11 10 10 10 10 9 9 9 9 9 8 8 7 7 6 5 5 4 3 3 2 2 3 4 4 5 6 6 7 7 7
21 20 19 19 19 18 18 17 17 16 15 14 13 13 12 12 12 12 12 12 12 12 12 12 12 12 12 12 12 12 12 12 12 11 11 11 11 11 10 10 9 9 9 9 9 9 9 9 9 8 8 7 6 6 5 5 4 4 3 3 4 4 5 6 6 7 7 7 8
20 19 19 18 18 18 17 17 16 15 14 14 13 13 12 12 12 13 12 12 13 13 13 13 13 12 12 12 12 12 12 12 11 11 11 11 10 10 10 9 9 8 8 8 8 8 8 8 8 8 7 7 6 6 6 6 5 4 4 4 4 5 6 7 7 7 8 8 8
19 18 18 18 17 17 16 15 14 13 12 12 12 12 12 12 13 13 13 13 12 12 12 12 12 12 12 12 12 12 11 11 11 11 11 10 10 10 9 9 8 8 7 7 7 7 7 6 6 6 6 6 6 7 7 6 5 5 5 5 5 6 7 7 8 8 8 9 9
18 18 18 17 16 15 14 12 11 10 10 10 11 12 12 13 13 13 13 12 12 12 12 12 12 12 12 12 11 11 11 11 11 11 11 10 10 10 10 9 9 8 8 8 8 7 7 7 6 6 6 6 6 6 6 6 6 5 6 6 6 6 7 8 8 9 9 9 9
18 17 17 15 14 13 11 10 10 10 11 11 12 12 12 12 13 13 12 12 12 12 12 12 12 12 12 12 11 11 11 11 11 11 11 11 11 10 10 10 10 9 9 9 9 9 8 8 7 7 6 6 6 6 6 6 6 6 6 6 7 7 7 8 8 9 9 9 9
17 16 15 14 13 12 11 11 11 12 13 13 13 13 13 13 13 12 12 12 12 12 12 12 12 12 11 11 11 11 11 11 12 12 12 12 11 11 11 11 10 10 10 10 10 9 8 8 7 7 7 6 6 6 6 6 6 6 7 7 8 8 9 9 9 9 9 9 9
16 15 14 13 12 12 12 13 14 15 15 15 15 14 14 13 13 13 13 13 13 13 12 12 12 12 12 12 12 12 12 12 12 12 13 13 12 12 11 10 10 10 11 11 10 9 8 7 6 6 7 7 7 7 7 7 7 8 8 8 9 9 9 9 9 9 9 9 9
15 14 14 14 14 14 14 15 16 17 17 16 16 15 15 14 13 13 13 14 13 13 13 13 13 12 12 13 13 13 13 13 13 13 13 13 12 11 10 9 9 10 11 11 10 9 8 7 6 6 7 8 8 8 8 8 9 9 9 9 10 10 10 10 10 10 10 9 10
15 15 16 16 16 17 17 17 17 17 17 16 16 15 15 14 14 14 15 14 14 14 14 14 13 13 13 13 14 14 13 13 13 13 12 12 11 10 9 8 8 9 11 11 11 10 9 9 8 8 8 9 9 10 10 10 10 10 10 10 10 10 10 10 10 10 11 11 11
17 17 17 17 17 17 17 17 17 16 16 16 15 15 15 15 15 15 15 15 15 15 15 14 14 13 14 14 14 13 13 13 13 12 12 12 12 11 10 9 9 10 11 12 12 11 11 11 11 10 10 10 11 11 11 10 10 10 11 11 11 11 11 11 11 11 12 12 12
16 16 16 16 16 16 16 16 16 15 15 15 15 15 15 15 15 15 15 15 15 14 14 14 14 14 14 13 13 13 13 12 13 13 13 13 13 13 12 12 11 12 13 13 13 13 13 13 13 13 12 12 12 12 11 11 11 11 11 12 12 12 12 12 13 13 13 13 13
14 14 14 15 15 15 14 14 14 14 14 14 14 14 14 14 14 14 14 14 14 13 13 13 14 14 13 13 13 13 13 13 13 13 14 14 14 14 14 14 13 13 14 15 15 15 15 14 14 13 13 12 12 12 12 12 12 12 13 13 13 13 13 13 13 13 13 13 13
12 12 12 13 13 13 13 13 12 12 12 13 13 13 13 12 12 12 13 13 13 13 13 13 14 14 13 13 13 13 13 13 14 14 14 14 14 15 14 14 13 13 13 15 15 15 15 14 14 13 12 12 12 13 13 13 13 13 13 14 14 14 14 14 14 14 14 14 14
11 11 12 12 12 12 12 11 11 11 11 11 11 12 11 11 11 12 13 13 13 12 12 12 13 13 13 12 12 12 12 13 13 13 13 13 13 13 13 13 12 11 12 13 14 14 14 13 13 12 12 12 13 13 13 13 13 13 14 14 14 15 15 15 15 15 15 15 15
11 11 11 11 11 10 10 10 10 10 10 10 10 11 11 11 11 11 12 13 12 12 11 11 11 11 11 11 11 11 12 12 12 12 12 12 12 12 12 12 11 11 11 11 12 13 13 14 13 13 13 13 14 13 13 13 13 14 14 15 15 15 15 15 15 16 15 15 15
11 11 10 10 10 10 10 10 10 10 10 10 10 11 11 11 11 11 11 12 12 11 10 10 10 10 9 10 10 10 11 12 12 12 12 12 12 12 12 12 11 11 11 12 13 13 14 14 14 14 14 14 14 13 13 13 13 14 14 15 15 16 16 16 16 16 16 15 15
11 11 10 10 10 11 11 11 10 11 11 11 11 11 11 11 10 10 10 11 11 10 10 10 10 9 9 10 11 11 12 12 12 13 13 13 13 13 13 14 14 13 13 13 14 14 14 15 15 15 15 14 14 13 12 13 13 13 14 15 15 15 15 15 15 15 15 14 14
11 11 11 11 11 12 12 11 11 11 11 11 11 11 10 10 9 9 10 10 10 10 10 10 10 10 11 12 13 13 14 14 14 14 14 14 14 14 15 16 16 16 16 15 15 14 14 14 15 15 14 14 13 12 12 12 12 13 13 14 14 14 14 14 14 14 14 14 14
12 12 12 12 12 12 12 11 10 10 11 10 10 10 10 10 9 9 10 10 11 11 12 12 12 12 13 14 15 16 16 16 15 15 16 15 15 15 16 16 17 17 16 15 14 14 14 14 14 14 14 13 12 12 12 12 12 13 13 13 14 14 14 13 13 13 14 14 14
13 13 13 12 11 11 11 10 10 10 10 10 10 10 10 10 10 10 11 11 11 12 13 13 14 14 15 16 17 17 17 17 16 16 16 15 15 15 15 16 16 16 15 14 13 13 13 13 13 13 13 12 12 11 11 11 12 13 13 13 14 14 14 14 14 14 14 14 14
13 13 13 11 10 10 9 10 10 10 10 11 11 11 11 11 11 11 12 12 13 13 14 14 14 15 16 16 16 17 17 17 16 15 15 14 14 14 14 14 15 15 14 13 13 13 13 13 13 13 12 12 11 11 11 12 12 13 13 13 14 14 14 14 14 14 14 14 14
12 12 11 10 9 9 9 10 10 10 11 12 12 12 12 12 12 12 13 13 13 13 13 14 14 15 15 15 15 15 16 16 15 14 13 13 13 13 13 14 14 14 14 13 12 12 12 13 13 12 12 12 11 11 12 12 13 13 14 14 14 14 15 15 15 14 14 15 15
Wind_Direction
185 191 196 198 200 199 195 190 188 188 190 196 201 208 217 223 231 245 260 265 220 204 217 234 242 249 252 253 252 250 248 247 246 246 247 247 248 249 251 252 253 253 252 252 254 251 247 244 239 230 220 215 210 203 196 190 183 179 176 174 172 171 170 170 175 183 188 182 177
188 193 196 192 183 178 177 178 181 185 189 194 199 208 218 226 230 239 248 249 241 231 227 232 239 243 244 244 241 238 235 232 229 229 229 231 235 237 240 243 243 240 235 228 225 214 202 192 173 154 143 139 136 131 130 134 136 131 124 120 119 118 116 114 117 125 131 128 122
179 175 169 163 160 163 167 168 171 176 181 187 196 205 212 217 218 219 220 223 228 228 225 223 233 235 232 226 220 211 197 181 166 157 152 153 162 175 185 189 183 176 167 155 138 127 122 120 117 111 105 100 97 93 92 96 103 103 97 92 90 88 85 83 83 85 85 80 70
166 165 160 153 152 155 158 158 160 162 165 169 180 188 192 192 192 188 184 184 183 175 168 168 173 177 177 170 161 152 142 132 123 117 112 110 110 113 123 146 148 135 122 114 110 107 105 104 102 98 95 91 87 83 81 81 84 84 81 76 71 67 63 60 56 53 51 46 38
159 162 159 151 148 149 151 151 150 151 154 159 159 158 158 159 159 157 152 143 131 125 124 124 121 118 118 120 119 117 116 115 116 111 107 105 104 108 115 119 116 108 103 102 100 98 97 95 93 90 88 86 84 80 77 75 72 68 64 59 54 51 48 44 37 31 28 27 23
139 141 141 139 139 143 146 143 142 145 150 153 144 138 137 139 139 137 131 123 119 116 115 113 111 109 107 106 104 101 99 97 101 102 100 96 94 94 96 99 99 97 94 94 93 92 90 88 85 81 79 78 76 74 72 69 64 59 54 50 47 45 43 39 32 26 22 16 289
123 123 124 126 128 131 133 134 137 139 140 138 131 127 126 127 126 123 119 117 114 112 110 108 106 103 101 98 95 91 86 83 83 86 87 85 84 82 82 84 85 86 86 87 87 86 85 83 78 73 69 65 60 56 54 52 49 44 39 35 32 31 29 26 21 17 9 291 247
118 118 118 120 122 123 124 126 129 130 129 125 120 117 117 118 117 115 114 112 109 107 105 103 101 99 97 94 92 89 86 83 81 81 82 82 81 80 80 79 80 81 82 84 84 83 82 81 79 75 70 64 57 51 46 41 37 32 27 22 18 14 10 5 0 356 348 327 319
112 113 115 117 118 119 120 121 122 122 119 115 113 112 112 113 112 111 109 107 106 105 103 101 99 97 95 93 91 90 88 86 84 83 83 84 83 82 81 80 80 79 79 79 79 78 78 76 74 71 67 61 53 45 37 31 24 19 14 7 2 357 354 350 348 343 334 326 321
108 109 111 112 114 116 118 118 118 116 114 112 112 112 112 112 110 108 107 106 106 105 102 100 98 97 95 93 91 89 88 87 86 85 84 84 83 81 80 79 77 76 75 72 71 69 67 64 61 57 52 45 38 30 21 14 8 3 356 347 340 338 339 340 340 337 330 322 314
107 108 109 109 111 114 115 114 112 111 110 109 109 109 109 107 106 106 107 108 106 104 101 100 98 96 95 93 91 89 88 88 88 87 87 85 84 83 81 79 77 74 71 67 63 59 56 54 52 48 44 38 32 25 16 8 0 352 343 335 329 325 322 322 323 320 312 304 301
105 106 108 109 110 112 111 109 107 106 105 104 104 104 104 103 103 105 107 107 105 103 102 102 100 98 96 95 95 95 95 94 94 93 91 90 90 91 90 88 83 79 74 69 64 60 57 54 53 50 47 42 36 30 23 15 4 350 329 312 306 299 284 272 273 269 267 268 276
103 104 105 106 107 107 106 105 103 103 102 101 101 101 102 103 104 105 105 105 104 103 104 107 110 109 106 105 107 109 109 108 106 102 98 94 92 91 91 89 86 84 81 79 77 76 75 75 74 74 73 69 64 62 64 71 81 100 141 179 181 192 216 233 241 244 247 254 264
102 102 103 103 103 102 101 100 99 100 101 101 101 101 102 105 106 107 107 106 106 106 109 114 119 119 117 117 118 119 118 117 115 110 105 99 93 88 86 86 87 87 87 88 90 91 93 97 99 103 106 108 111 113 115 119 126 135 146 153 155 170 198 226 243 252 258 265 266
98 98 99 100 100 99 97 96 95 96 98 100 100 101 103 105 107 110 110 108 108 110 114 117 117 118 119 120 121 120 119 117 115 112 109 106 103 99 96 94 94 94 95 97 98 99 100 102 106 110 115 120 124 127 130 133 138 146 155 161 165 195 227 248 259 262 264 263 260
92 93 94 96 96 96 95 93 92 93 95 97 99 101 102 104 107 109 108 108 110 113 115 115 115 116 116 117 117 115 113 110 107 105 104 102 102 100 99 96 95 95 95 96 96 97 99 101 103 105 109 114 119 122 125 130 135 142 152 166 200 236 252 259 261 258 255 252 249
88 88 89 91 92 93 93 92 92 92 93 96 97 98 100 103 105 107 108 110 112 113 114 114 113 112 111 110 108 106 102 99 96 95 93 92 92 91 90 89 87 86 86 86 86 86 86 86 88 90 91 94 95 98 102 108 115 122 139 184 231 249 256 259 257 252 248 248 246
85 86 87 87 89 90 91 92 92 93 94 96 97 100 104 108 110 112 113 114 112 111 109 108 107 104 101 98 96 93 90 87 85 83 81 80 79 78 77 77 75 74 73 73 72 70 68 66 65 64 64 65 65 65 65 65 65 59 34 281 264 261 259 258 255 251 248 247 248
84 85 85 85 86 88 90 92 93 95 97 100 104 107 111 113 114 113 111 109 107 104 101 97 94 91 88 85 82 79 77 75 74 72 70 68 66 66 66 66 66 65 64 61 59 57 54 51 48 46 46 46 43 39 34 30 23 11 352 322 291 276 267 264 262 260 258 256 256
84 84 84 85 87 89 91 93 95 97 100 104 107 109 109 108 107 104 101 98 95 92 89 86 82 79 76 74 72 70 68 66 65 63 61 59 58 58 58 59 60 60 59 56 53 50 47 43 38 35 34 34 30 24 17 14 8 357 341 320 297 284 279 278 278 277 275 272 270
84 85 86 87 89 91 92 94 96 98 100 102 102 102 100 98 95 92 89 86 83 81 78 76 73 71 68 66 64 62 60 58 57 56 54 53 52 52 52 52 54 55 54 52 51 49 46 41 35 28 24 21 14 6 3 360 353 341 324 306 292 287 287 288 287 285 281 278 276
85 87 89 90 91 92 94 95 96 98 98 97 95 92 90 87 84 81 79 77 75 72 70 68 66 64 62 60 58 56 54 52 50 49 47 46 45 44 43 43 43 43 41 39 39 40 42 41 35 26 16 8 358 352 349 345 337 325 311 298 289 285 285 285 283 280 277 275 274
88 89 90 91 92 93 95 97 99 100 98 95 90 86 82 78 76 74 72 70 68 66 64 62 60 58 57 55 53 51 49 47 45 43 41 39 37 35 33 31 29 27 24 20 19 19 23 26 24 17 8 359 349 342 336 329 320 310 301 294 287 283 281 279 277 275 273 272 271
89 90 91 92 94 96 99 101 101 99 95 90 85 80 76 73 70 67 65 63 62 60 59 57 55 53 50 49 47 46 43 41 38 36 34 32 29 27 24 21 19 17 14 11 10 9 10 11 8 2 355 348 340 332 323 313 304 297 293 290 287 284 281 278 275 273 271 269 268
89 90 92 94 96 98 98 96 92 88 84 80 77 74 71 67 64 62 59 57 56 54 53 51 49 46 44 41 40 38 36 33 31 29 27 26 24 21 19 16 12 9 6 5 4 4 5 5 359 351 343 337 330 323 314 306 299 295 292 290 288 287 285 282 278 275 272 271 270
88 89 91 93 93 91 87 83 78 75 72 69 67 65 63 60 58 55 53 50 49 47 46 44 42 39 36 34 32 30 28 26 23 21 21 20 20 19 16 12 6 1 358 357 357 357 359 359 353 344 336 330 324 318 312 306 301 297 294 292 289 288 286 285 283 281 279 277 277
84 84 84 84 81 78 74 70 68 65 63 61 59 57 55 53 51 48 46 44 42 40 38 36 34 31 29 26 25 23 21 19 16 15 14 14 15 15 13 7 358 351 348 348 348 348 347 344 341 337 332 327 322 317 312 307 303 300 296 293 290 288 287 286 286 286 286 285 284
75 75 74 72 69 66 64 62 60 58 56 54 52 50 48 46 44 42 40 38 36 33 31 29 27 24 21 20 19 17 15 12 10 8 6 6 6 6 4 359 352 343 338 338 338 337 335 331 328 328 327 324 321 318 313 309 305 301 298 294 290 288 286 286 286 287 287 287 286
65 65 64 62 60 59 57 55 53 51 50 48 46 43 41 39 37 35 33 31 30 28 26 23 21 18 17 15 14 12 9 6 3 0 358 356 355 354 351 347 342 334 329 329 329 328 326 323 321 321 321 320 318 315 312 307 303 299 295 291 288 285 284 282 282 282 283 283 284
58 58 58 56 55 53 51 49 47 45 43 42 40 38 35 33 31 29 27 26 25 23 21 18 16 15 14 12 8 6 3 360 356 353 350 348 346 344 341 338 333 329 325 324 323 322 320 319 317 317 317 316 313 310 306 300 296 292 288 285 282 281 279 279 278 278 278 279 281
54 53 53 52 50 48 46 44 42 39 37 36 34 33 31 29 26 24 22 21 19 17 14 12 10 10 9 6 3 0 357 353 350 348 345 343 340 337 335 332 330 326 322 320 319 318 318 317 317 316 314 312 308 304 298 293 288 285 282 280 278 278 278 277 277 277 277 278 280
51 49 49 47 46 44 42 40 37 34 32 31 30 28 27 24 22 19 17 16 14 11 9 6 5 4 2 359 357 354 351 348 345 343 340 337 335 332 330 328 325 321 317 315 315 316 317 317 316 315 312 309 304 298 293 288 284 281 279 277 277 277 277 277 278 278 278 279 281
48 46 45 44 42 39 37 35 33 31 28 26 25 24 21 19 16 14 12 11 10 8 4 1 359 357 355 352 350 347 344 341 338 336 333 330 328 325 323 321 318 313 309 309 310 312 313 314 314 313 311 307 303 298 293 289 284 281 279 278 278 278 278 277 278 278 278 279 280
44 43 42 40 38 35 33 31 29 27 24 22 20 18 16 14 11 8 6 5 4 2 359 356 353 350 347 344 341 338 334 331 329 327 325 322 320 317 314 311 309 307 305 305 306 308 309 311 312 313 312 309 305 300 295 290 286 282 281 279 279 278 278 277 276 276 276 277 277
42 40 38 36 34 32 29 27 25 22 20 17 15 13 11 9 7 3 360 358 357 355 351 348 345 342 338 335 332 329 326 324 321 319 317 315 314 312 309 307 307 306 305 305 305 307 309 311 313 314 313 311 307 302 297 291 287 283 281 280 279 279 278 276 275 275 274 274 274
41 39 36 33 31 29 27 24 20 17 15 13 10 7 4 2 0 357 353 351 349 347 343 340 338 335 331 328 326 324 322 320 318 317 315 314 313 312 311 309 309 309 308 308 308 309 311 313 314 314 314 312 308 302 296 291 287 284 283 281 280 280 279 278 277 276 276 276 276
37 36 34 31 27 25 23 20 15 13 10 7 4 1 358 355 352 350 348 346 343 340 337 335 333 330 328 326 324 323 322 322 320 319 317 316 315 314 313 311 311 311 312 312 312 312 312 313 313 314 313 311 306 301 296 291 288 286 285 284 283 283 283 283 283 282 281 281 281
31 30 29 26 23 20 17 14 10 7 4 0 358 354 352 349 346 345 344 343 340 336 333 332 331 328 327 326 324 324 324 324 322 320 318 317 316 314 312 311 311 311 313 313 312 311 311 312 313 313 312 310 305 301 297 293 290 289 288 288 288 288 288 288 288 287 286 285 285
27 25 24 21 17 12 9 7 4 1 358 354 351 349 347 346 344 342 341 339 337 334 332 330 328 327 326 326 324 323 322 322 322 320 318 315 314 312 310 308 308 309 310 310 310 310 310 312 313 314 313 310 306 302 299 296 294 293 293 293 293 293 292 291 291 291 289 288 288
22 20 18 14 8 3 1 0 359 356 354 351 349 347 345 344 341 339 338 337 335 333 330 328 326 325 324 324 321 319 318 319 319 317 315 313 311 310 308 305 305 306 307 307 308 310 312 313 315 316 316 313 310 306 303 301 299 298 298 297 297 297 297 296 295 294 293 292 291
14 12 9 5 360 357 356 356 355 353 352 351 348 345 343 340 338 336 335 333 331 329 326 323 322 321 320 319 317 315 315 315 315 315 314 312 310 309 307 305 304 305 306 308 310 313 315 317 318 319 319 318 315 311 308 305 302 300 300 300 300 300 300 300 299 296 295 294 293
Height
727 728 729 729 731 732 732 733 734 735 735 735 736 736 737 738 738 739 740 740 741 742 742 742 742 743 743 743 743 743 743 743 742 742 742 741 741 741 740 740 740 740 741 741 741 741 742 742 743 743 743 742 743 743 743 743 744 744 744 745 745 746 747 747 748 749 749 750 751
727 727 728 729 730 731 731 732 733 734 734 735 736 736 737 738 739 740 740 741 741 742 742 742 742 743 743 743 743 743 743 742 742 741 741 740 740 739 739 739 739 739 739 739 740 740 741 741 741 741 741 742 742 743 744 744 744 744 745 745 746 746 746 747 748 749 750 751 751
725 726 727 728 729 729 730 731 733 733 734 735 736 736 737 738 739 740 741 741 742 742 742 742 742 743 743 743 743 742 742 742 741 741 740 740 739 738 738 738 738 738 738 738 738 739 739 739 739 739 740 741 742 743 744 744 744 744 745 745 746 746 746 747 748 749 750 751 752
724 726 727 728 728 729 730 731 733 733 734 735 736 737 738 739 740 740 741 742 742 742 742 742 742 743 743 743 743 742 742 742 741 741 740 740 739 738 738 738 738 738 738 738 738 739 739 739 739 740 740 741 742 743 744 745 745 745 746 746 746 746 747 748 749 750 751 752 753
724 725 726 727 728 729 730 731 733 734 735 736 737 738 738 739 740 741 742 742 742 742 742 742 743 743 743 743 743 743 742 742 741 741 741 740 739 739 739 738 738 738 737 738 739 739 739 739 740 740 741 742 743 744 745 746 746 747 747 747 747 747 748 748 750 751 752 753 754
724 725 726 727 728 729 731 732 733 734 736 737 738 738 739 740 741 741 742 742 742 742 743 743 743 744 744 744 743 743 743 742 742 741 741 741 740 740 739 739 738 738 737 738 738 739 739 739 740 741 742 743 743 744 745 746 746 747 748 748 748 748 749 750 751 753 753 754 755
724 726 727 728 729 730 731 732 734 735 736 738 738 739 740 740 741 742 742 742 743 743 743 744 744 744 744 744 744 744 743 743 743 742 742 742 742 742 741 740 739 738 738 738 739 739 740 740 740 741 742 743 744 745 745 746 747 748 748 749 749 749 750 752 753 754 755 756 756
725 726 728 728 730 731 732 733 735 736 737 738 739 740 741 741 742 742 743 743 743 743 744 745 745 745 745 745 745 744 744 744 743 743 743 743 743 743 742 741 740 740 740 740 740 741 741 741 742 743 744 745 746 746 747 747 748 748 749 750 751 751 752 753 754 755 756 756 755
726 728 729 730 731 732 733 735 736 737 738 739 740 741 742 742 743 743 743 743 744 744 745 745 746 746 746 746 745 745 745 744 744 744 744 744 744 743 743 742 742 742 742 742 742 742 743 743 743 744 745 746 747 748 748 748 749 750 751 751 752 753 753 754 755 755 755 755 754
727 729 730 731 732 733 734 736 737 738 739 739 740 742 742 743 743 743 744 744 744 745 745 746 746 746 746 746 746 746 745 745 745 745 745 745 744 744 743 743 743 743 743 743 743 743 743 743 744 745 745 746 747 748 748 749 750 750 751 752 753 753 753 754 754 755 755 754 754
729 730 731 733 734 735 736 737 738 739 739 740 741 742 743 743 744 744 745 745 745 745 746 747 747 747 747 747 747 747 746 746 746 746 745 745 745 744 744 744 743 743 743 743 743 743 744 744 744 745 745 746 747 748 748 749 750 750 751 752 752 753 753 753 753 754 754 754 754
730 732 733 734 735 736 737 738 739 739 740 741 742 743 744 744 745 745 746 746 746 746 747 747 748 748 748 748 748 747 747 747 747 747 746 746 746 745 745 744 744 744 743 743 743 743 743 743 744 744 745 746 746 747 748 748 749 750 751 751 751 752 752 752 753 753 753 753 753
732 733 735 736 737 738 738 739 739 740 741 742 743 744 745 746 746 747 747 747 747 748 748 748 748 748 748 748 748 748 748 748 748 748 747 747 747 746 746 745 744 744 744 744 744 744 743 743 743 743 744 744 745 746 747 748 749 749 750 750 751 751 751 752 752 752 752 752 753
733 735 736 737 738 738 739 739 740 742 743 743 744 745 746 747 747 748 748 748 748 749 749 749 749 749 749 749 749 749 749 748 748 748 748 748 748 747 747 746 745 745 745 745 745 745 745 744 744 744 743 744 745 746 747 748 748 749 750 750 751 751 751 751 751 751 751 752 753
735 737 738 738 738 739 740 741 742 743 744 745 746 746 747 748 748 749 749 749 749 750 750 750 750 750 750 750 750 750 749 749 749 749 749 749 748 748 747 746 746 746 746 746 746 746 746 746 745 745 744 744 745 745 747 748 748 749 749 750 750 750 750 750 750 751 751 752 753
737 738 738 739 739 740 741 742 743 744 745 746 747 748 748 749 750 750 750 751 751 751 752 751 751 751 751 751 750 750 750 750 750 749 749 749 748 748 747 747 746 746 746 746 746 746 746 746 746 746 745 745 745 746 746 747 748 748 748 749 749 749 750 750 751 751 752 753 753
738 739 740 740 741 742 743 744 745 746 747 748 748 749 750 751 751 752 752 752 753 753 752 752 752 752 752 751 751 751 750 750 750 749 749 749 748 748 748 747 747 747 747 746 746 746 747 747 747 746 746 746 746 746 747 747 747 748 748 749 749 750 750 751 751 752 753 753 753
740 741 742 743 743 744 745 746 747 748 748 749 750 751 752 753 753 753 753 753 753 753 753 753 752 752 752 751 751 751 750 750 750 749 749 749 748 748 748 748 747 747 747 747 747 747 747 747 747 747 747 747 747 747 747 747 747 748 748 749 749 750 751 752 752 752 753 753 753
742 743 744 744 745 746 746 747 748 749 750 751 752 753 754 754 754 754 754 754 754 753 753 753 752 752 752 751 751 751 750 750 750 749 749 749 748 748 748 748 748 748 748 748 748 747 747 747 747 747 747 747 747 747 747 747 748 748 748 749 750 751 751 752 752 752 752 753 753
744 745 746 747 747 748 748 749 750 751 753 754 755 755 756 756 755 755 754 754 754 753 753 753 752 752 752 751 751 751 750 750 750 750 749 749 749 749 749 748 748 748 748 748 748 748 748 748 748 748 748 748 748 748 748 748 748 748 749 750 751 751 751 752 752 752 752 752 752
747 747 748 748 749 749 750 751 753 754 755 756 757 757 756 756 755 755 754 754 754 753 753 753 753 752 752 751 751 751 751 750 750 750 750 750 749 749 749 749 749 749 749 748 748 748 748 748 748 748 748 748 748 748 748 748 749 749 750 750 751 751 751 751 751 751 751 751 751
748 749 750 750 751 752 753 754 756 757 758 758 757 757 756 756 755 755 755 754 754 754 753 753 753 753 752 752 752 751 751 751 751 750 750 750 750 750 750 749 749 749 749 748 748 748 748 748 748 748 748 748 748 748 748 749 749 749 750 750 750 751 750 750 750 750 750 750 750
750 751 752 753 753 755 756 757 758 759 758 758 758 757 756 756 756 755 755 755 754 754 754 753 753 753 753 752 752 752 752 751 751 751 751 750 750 750 750 749 749 749 749 748 748 748 748 748 748 748 748 748 748 748 749 749 749 749 750 750 750 750 750 750 750 750 749 749 749
753 753 754 755 756 758 758 759 760 759 759 758 757 757 756 756 756 755 755 755 755 754 754 754 754 753 753 753 753 752 752 752 751 751 751 750 750 750 750 749 749 749 748 748 748 748 748 748 748 748 748 748 749 749 749 749 749 749 749 749 749 749 749 749 749 749 749 748 748
755 756 757 758 759 760 760 760 760 759 758 757 757 757 756 756 756 756 756 755 755 755 755 754 754 754 753 753 753 752 752 752 751 751 751 750 750 749 749 749 749 748 748 748 748 748 748 748 748 748 748 749 749 749 749 749 749 749 749 749 749 748 748 748 748 748 748 748 747
758 758 759 760 760 760 760 760 759 758 757 757 757 756 756 756 756 756 756 756 755 755 755 755 754 754 753 753 753 752 752 751 751 751 750 750 750 749 749 749 749 748 748 748 748 748 748 749 749 749 749 749 749 749 749 749 749 748 748 748 748 748 747 747 747 747 747 746 746
759 759 760 760 760 760 759 758 758 757 757 757 757 757 757 757 757 756 756 756 756 755 755 754 754 753 753 753 752 752 751 751 751 750 750 750 750 750 750 749 749 749 749 749 749 749 749 749 749 749 749 749 748 748 748 748 748 748 748 747 747 747 746 746 746 746 745 745 745
759 759 759 759 759 758 758 758 757 757 757 757 757 757 757 757 757 756 756 756 756 755 755 754 753 753 753 752 752 752 751 751 751 751 750 750 750 750 750 750 750 750 749 749 749 749 749 749 749 748 748 748 748 748 748 747 747 747 747 746 746 746 745 745 745 744 744 744 744
759 759 759 759 758 758 758 758 758 758 758 758 758 758 757 757 757 757 756 756 755 755 754 754 753 753 753 752 752 752 752 752 751 751 751 751 751 751 751 751 750 750 749 749 749 749 748 748 748 748 748 748 747 747 747 747 746 746 746 746 745 745 745 744 744 744 743 743 743
760 760 760 760 759 759 759 759 758 758 758 758 758 758 758 757 757 757 756 756 755 755 754 754 754 753 753 753 753 753 752 752 752 752 751 751 751 751 751 750 750 750 749 749 749 748 748 748 748 747 747 747 747 746 746 746 746 745 745 745 744 744 744 743 743 743 742 742 742
761 761 761 761 760 760 760 760 759 759 759 759 759 758 758 758 758 757 757 756 756 756 755 755 754 754 754 754 753 753 753 753 752 752 752 751 751 751 750 750 750 749 749 748 748 748 748 747 747 747 747 746 746 746 746 745 745 745 744 744 743 743 743 742 742 741 741 741 740
763 762 762 762 761 761 761 761 760 760 760 760 760 759 759 759 758 758 758 757 757 756 756 755 755 754 754 754 754 753 753 753 752 752 752 751 751 751 750 750 750 749 749 748 748 748 747 747 747 746 746 746 746 745 745 744 744 743 743 742 742 741 741 741 740 740 739 739 739
763 763 763 762 762 762 762 762 762 762 762 761 761 760 760 760 759 758 758 758 757 757 756 756 755 755 755 754 754 754 753 753 753 752 752 752 751 751 750 750 749 749 749 748 748 747 747 746 746 746 745 745 744 744 743 743 742 742 741 741 740 740 739 739 739 738 738 738 738
764 764 763 763 763 763 763 763 763 763 763 762 762 761 761 760 759 759 758 758 758 757 757 757 756 756 755 755 755 754 754 753 753 753 752 752 751 751 750 750 749 749 748 748 747 747 746 746 745 745 744 743 743 743 742 741 741 740 740 739 739 738 738 738 738 737 737 737 736
765 765 765 765 765 764 764 764 764 763 763 762 762 761 761 760 760 759 759 758 758 758 757 757 757 756 756 755 755 754 754 753 753 752 752 751 751 750 749 749 748 748 748 747 746 746 745 744 744 743 743 742 742 741 741 740 740 739 738 738 738 737 737 736 736 736 735 735 735
766 766 766 766 765 765 765 764 764 763 763 762 762 761 761 760 760 759 759 758 758 758 757 757 757 756 756 755 755 754 753 753 752 752 751 750 750 749 748 748 747 747 746 746 745 745 744 743 743 743 742 741 741 740 740 739 738 738 737 737 736 736 735 735 735 734 734 734 734
767 767 767 766 766 765 765 764 764 763 763 763 762 762 761 761 760 760 759 759 758 758 757 757 756 756 755 754 754 753 753 752 751 750 750 749 748 748 747 746 746 745 745 745 744 744 743 743 743 742 741 741 740 739 739 738 738 737 736 736 735 735 734 734 733 733 733 733 732
768 767 767 766 766 765 765 764 764 764 763 763 762 762 761 761 760 760 759 758 758 757 757 756 756 755 754 753 753 752 751 751 750 749 748 748 748 747 746 745 745 744 744 744 743 743 743 742 742 741 741 740 739 739 738 738 737 736 735 735 734 733 733 733 733 732 732 731 731
768 767 767 766 766 765 765 765 764 764 763 763 762 762 761 761 760 759 759 758 758 757 756 755 755 754 753 753 752 751 750 750 749 749 748 748 747 746 746 745 744 744 743 743 743 743 742 742 741 741 740 739 739 738 738 737 736 735 734 734 733 733 732 732 731 731 730 730 730
768 767 767 766 766 766 765 765 764 764 763 763 762 761 761 760 760 759 758 758 757 756 756 755 754 753 753 752 752 751 750 749 749 748 748 747 747 746 745 745 744 743 743 743 743 742 742 741 740 740 739 739 738 738 737 736 735 734 734 733 733 732 731 731 730 730 729 729 729
768 768 767 767 767 766 765 765 764 764 763 763 762 761 761 760 759 759 758 758 757 756 756 755 754 753 753 752 751 751 750 749 748 748 748 747 746 746 745 744 743 743 742 742 742 741 741 740 740 739 738 738 738 737 736 735 735 734 733 733 732 731 730 730 729 729 728 728 728